Weather observations for the past three days for
Morrisville-Stowe State Airport
Imperial (Metric)
Date Time (edt) Wind (mph) Vis. (mi.) Weather Sky Cond. Temperature (ºF) Relative Humidity Wind Chill (°F) Heat Index (°F) Pressure Precipitation (in)
Air Dwpt 6 hour altimeter (in) sea level (mb) 1 hr 3 hr 6 hr
Max. Min.
12 23:54 Calm 10.00 Overcast OVC044 57.9 55 90% 29.99 1015.7
12 22:54 Calm 10.00 Overcast OVC043 57.9 55 90% 30 1016.0
12 21:54 Calm 10.00 Overcast OVC045 57.9 55 90% 29.99 1015.6
12 20:54 Calm 10.00 Fair CLR 59 54 83% 29.97 1015.1
12 19:54 NW 3 10.00 Mostly Cloudy SCT043 BKN050 66 55 72 66 68% 29.97 1014.8
12 18:54 NE 5 10.00 Partly Cloudy SCT041 SCT050 68 55.9 65% 29.96 1014.6
12 17:54 NW 6 10.00 Overcast BKN048 BKN060 OVC070 69.1 55 61% 29.96 1014.7
12 16:54 N 7 10.00 Overcast BKN048 OVC070 68 55 63% 29.97 1015.0
12 15:54 N 8 10.00 Overcast BKN041 OVC050 72 55 55% 29.98 1015.4
12 14:54 N 10 10.00 Mostly Cloudy SCT040 BKN049 BKN065 72 55 55% 29.99 1015.7
12 13:54 N 9 10.00 Partly Cloudy FEW037 SCT050 71.1 55 71.1 57 57% 30.01 1016.4
12 12:54 N 9 10.00 Overcast SCT033 OVC047 69.1 55 61% 30.03 1017.1
12 11:54 Calm 10.00 Overcast OVC034 66.9 53.1 61% 30.04 1017.4
12 09:54 NE 6 10.00 Overcast OVC028 62.1 53.1 73% 30.05 1017.7
12 08:54 N 3 10.00 Mostly Cloudy BKN025 BKN050 61 52 72% 30.06 1017.9
12 07:54 Calm 10.00 Mostly Cloudy BKN070 57 54 57 48.9 90% 30.05 1017.7
12 06:54 Calm 10.00 Mostly Cloudy BKN070 55 53.1 93% 30.06 1017.9
12 05:54 Calm 10.00 A Few Clouds FEW002 50 46.9 89% 30.05 1017.7
12 04:54 Calm 10.00 Overcast FEW035 OVC095 51.1 48 89% 30.04 1017.5
12 03:54 N 3 10.00 Overcast OVC095 51.1 48.9 92% 30.04 1017.3
12 02:54 Calm 10.00 Overcast OVC065 51.1 48.9 92% 30.04 1017.4
12 01:54 Calm 9.00 A Few Clouds FEW031 50 48 61 50 93% 30.04 1017.2
12 00:54 Calm 10.00 Overcast OVC030 53.1 51.1 93% 30.04 1017.4
11 23:54 Calm 10.00 Mostly Cloudy BKN033 52 48.9 89% 30.03 1017.3
11 22:54 Calm 10.00 A Few Clouds FEW032 53.1 50 89% 30.02 1016.9
11 21:54 Calm 10.00 Fair CLR 55 51.1 87% 30.01 1016.6
11 20:54 NE 8 10.00 Overcast OVC032 60.1 53.1 78% 29.99 1015.7
11 19:54 N 7 10.00 Partly Cloudy SCT075 61 54 68 61 78% 29.98 1015.3
11 18:54 N 5 10.00 Mostly Cloudy BKN070 66 54 65% 29.96 1014.8
11 17:54 N 9 10.00 Fair CLR 64.9 53.1 66% 29.95 1014.3
11 16:54 N 9 10.00 Overcast OVC065 64.9 54 68% 29.96 1014.5
11 15:54 N 10 10.00 Overcast OVC055 66 53.1 63% 29.96 1014.4
11 14:54 NE 8 G 18 10.00 Mostly Cloudy BKN055 68 54 61% 29.95 1014.3
11 13:54 N 8 10.00 A Few Clouds FEW030 68 54 68 54 61% 29.95 1014.3
11 12:54 Calm 10.00 Partly Cloudy SCT027 63 52 68% 29.95 1014.2
11 11:54 NE 5 10.00 Overcast OVC020 62.1 52 70% 29.96 1014.5
11 10:54 Vrbl 3 10.00 Overcast OVC017 59 50 72% 29.95 1014.4
11 09:54 Calm 10.00 Overcast OVC017 57 50 78% 29.95 1014.4
11 08:54 N 9 10.00 Overcast OVC017 55.9 50 81% 29.95 1014.4
11 07:54 N 5 10.00 Overcast OVC019 54 48 54 52 80% 29.94 1014.0
11 06:54 N 8 10.00 Overcast OVC017 52 48 86% 29.92 1013.4
11 05:54 N 7 10.00 Overcast OVC018 53.1 46.9 80% 29.89 1012.4
11 04:54 N 9 10.00 Overcast OVC020 53.1 48 83% 29.87 1011.6
11 03:54 Calm 10.00 Overcast BKN019 OVC055 53.1 48.9 86% 29.84 1010.8
11 02:54 N 5 10.00 Overcast BKN022 OVC050 53.1 48.9 86% 29.84 1010.5
11 01:54 N 6 10.00 Overcast BKN026 OVC031 54 48 55.9 54 80% 29.83 1010.4
11 00:54 NW 5 10.00 Overcast SCT019 SCT024 OVC032 54 48 80% 29.82 1009.8
10 23:54 N 8 10.00 Overcast OVC018 55 48.9 80% 29.8 1009.3
10 22:54 N 3 10.00 Overcast OVC015 55 50 83% 29.78 1008.6
10 21:54 Calm 10.00 Overcast OVC019 55 51.1 87% 29.76 1008.0
10 20:54 Calm 10.00 Overcast OVC019 55 51.1 87% 29.75 1007.5
10 19:54 N 5 10.00 Overcast OVC026 55 50 60.1 55 83% 29.73 1006.9
10 18:54 N 6 10.00 Overcast OVC023 55.9 51.1 84% 29.71 1006.3
10 17:54 NW 5 10.00 Overcast OVC022 57 50 78% 29.68 1005.3
10 16:54 NW 3 10.00 Overcast OVC021 57 50 78% 29.67 1004.7
10 15:54 Vrbl 5 10.00 Overcast OVC020 57 50 78% 29.65 1004.0
10 14:54 NW 7 10.00 Overcast OVC023 57.9 51.1 78% 29.62 1003.2
10 13:54 N 8 10.00 Overcast OVC025 60.1 52 60.1 55.9 75% 29.6 1002.6
10 12:54 Vrbl 5 10.00 Overcast FEW022 OVC029 59 51.1 75% 29.59 1002.0
10 11:54 N 7 5.00 Light Rain Fog/Mist SCT009 BKN014 OVC022 57.9 54 87% 29.56 1001.3
10 10:54 SW 6 10.00 Overcast BKN018 OVC024 57.9 54 87% 29.55 1000.8
10 09:54 S 7 10.00 Overcast FEW023 OVC029 57 53.1 87% 29.54 1000.4
10 08:54 S 7 10.00 Overcast FEW008 SCT011 OVC034 55.9 54 93% 29.53 1000.0
10 07:54 S 5 9.00 Light Rain BKN037 OVC047 55.9 54 55.9 54 93% 29.52 999.9 0.01 0.05
10 06:54 S 6 10.00 Light Rain FEW030 BKN037 OVC050 55 52 90% 29.51 999.5 0.01
10 05:54 S 6 10.00 Light Rain SCT030 BKN035 OVC045 54 52 93% 29.51 999.3 0.01
10 04:54 S 3 9.00 Light Rain BKN033 OVC055 54 51.1 90% 29.49 998.6 0.01 0.02
10 03:54 S 6 10.00 Overcast OVC032 54 51.1 90% 29.48 998.5
10 02:54 SW 3 10.00 Light Rain BKN032 OVC047 55 51.1 87% 29.48 998.4 0.01
10 01:54 S 6 10.00 Overcast BKN033 OVC041 55.9 51.1 55.9 54 84% 29.48 998.3
10 00:54 SW 7 10.00 Overcast BKN037 OVC047 55 51.1 87% 29.48 998.5
Date Time (edt) Wind (mph) Vis. (mi.) Weather Sky Cond. Air Dwpt Max. Min. Relative Humidity Wind Chill (°F) Heat Index (°F) altimeter (in) sea level (mb) 1 hr 3 hr 6 hr
6 hour
Temperature (ºF) Pressure Precipitation (in)